�������l�o���
Date,Time,MP-1(��Sv/h),MP-2(��Sv/h),MP-3(��Sv/h),MP-4(��Sv/h),MP-5(��Sv/h),MP-6(��Sv/h),MP-7(��Sv/h),MP-8(��Sv/h),����,����(m/s),���J
2015/02/17,00:00,1.952,3.582,3.852,3.485,3.707,1.117,1.838,2.112,�k��,6.0,��
2015/02/17,00:10,1.948,3.580,3.850,3.487,3.710,1.115,1.842,2.108,�k��,6.3,��
2015/02/17,00:20,1.950,3.578,3.853,3.487,3.707,1.118,1.840,2.112,�k��,6.3,��
2015/02/17,00:30,1.950,3.578,3.853,3.485,3.703,1.118,1.840,2.110,�k��,5.6,��
2015/02/17,00:40,1.950,3.577,3.857,3.487,3.710,1.120,1.842,2.112,�k��,6.1,��
2015/02/17,00:50,1.953,3.577,3.852,3.483,3.702,1.118,1.842,2.113,�k��,5.5,��
2015/02/17,01:00,1.950,3.578,3.853,3.483,3.707,1.118,1.842,2.110,�k��,5.5,��
2015/02/17,01:10,1.947,3.575,3.853,3.483,3.707,1.117,1.842,2.108,�k��,5.0,��
2015/02/17,01:20,1.948,3.577,3.850,3.483,3.710,1.117,1.840,2.112,�k��,5.4,��
2015/02/17,01:30,1.950,3.580,3.848,3.483,3.708,1.118,1.840,2.110,�k��,5.1,��
2015/02/17,01:40,1.948,3.580,3.850,3.482,3.705,1.118,1.840,2.107,�k��,5.4,��
2015/02/17,01:50,1.952,3.575,3.845,3.483,3.703,1.117,1.840,2.112,�k��,5.7,��
2015/02/17,02:00,1.952,3.575,3.848,3.483,3.708,1.120,1.838,2.110,�k��,5.4,��
2015/02/17,02:10,1.950,3.575,3.850,3.485,3.703,1.117,1.840,2.108,�k��,5.8,��
2015/02/17,02:20,1.948,3.575,3.847,3.482,3.705,1.118,1.840,2.112,�k��,5.6,��
2015/02/17,02:30,1.952,3.573,3.852,3.482,3.708,1.117,1.842,2.112,�k��,5.4,��
2015/02/17,02:40,1.950,3.577,3.843,3.485,3.703,1.117,1.842,2.110,�k��,5.3,��
2015/02/17,02:50,1.950,3.575,3.848,3.483,3.703,1.117,1.838,2.112,�k��,5.3,��
2015/02/17,03:00,1.952,3.578,3.845,3.485,3.708,1.117,1.838,2.108,�k��,5.7,��
2015/02/17,03:10,1.948,3.575,3.850,3.483,3.707,1.117,1.837,2.112,�k�k��,5.4,��
2015/02/17,03:20,1.950,3.573,3.848,3.483,3.708,1.118,1.838,2.113,�k��,5.7,��
2015/02/17,03:30,1.950,3.580,3.847,3.482,3.702,1.118,1.840,2.112,�k�k��,5.4,��
2015/02/17,03:40,1.948,3.577,3.847,3.487,3.703,1.117,1.837,2.112,�k�k��,4.9,��
2015/02/17,03:50,1.948,3.575,3.847,3.482,3.707,1.117,1.840,2.112,�k�k��,4.9,��
2015/02/17,04:00,1.948,3.578,3.847,3.480,3.705,1.120,1.837,2.112,�k�k��,4.5,��
2015/02/17,04:10,1.948,3.575,3.847,3.483,3.702,1.117,1.838,2.108,�k�k��,4.5,��
2015/02/17,04:20,1.950,3.577,3.847,3.485,3.703,1.118,1.837,2.107,�k�k��,3.9,��
2015/02/17,04:30,1.950,3.578,3.843,3.483,3.703,1.115,1.837,2.110,�k�k��,4.5,��
2015/02/17,04:40,1.948,3.575,3.843,3.483,3.703,1.120,1.838,2.108,�k�k��,4.6,��
2015/02/17,04:50,1.947,3.575,3.843,3.483,3.702,1.115,1.838,2.108,�k�k��,4.2,��
2015/02/17,05:00,1.948,3.573,3.843,3.485,3.703,1.118,1.840,2.112,�k�k��,4.7,��
2015/02/17,05:10,1.952,3.575,3.845,3.483,3.707,1.115,1.840,2.110,�k�k��,4.3,��
2015/02/17,05:20,1.947,3.580,3.848,3.485,3.705,1.117,1.838,2.110,�k�k��,4.9,��
2015/02/17,05:30,1.950,3.580,3.845,3.485,3.700,1.117,1.842,2.112,�k�k��,4.1,��
2015/02/17,05:40,1.948,3.572,3.845,3.485,3.697,1.113,1.840,2.112,�k�k��,4.4,��
2015/02/17,05:50,1.952,3.573,3.843,3.482,3.700,1.113,1.840,2.110,�k�k��,4.3,��
2015/02/17,06:00,1.950,3.575,3.842,3.482,3.703,1.112,1.838,2.110,�k�k��,3.8,��
2015/02/17,06:10,1.948,3.572,3.840,3.483,3.708,1.110,1.838,2.107,�k�k��,4.3,��
2015/02/17,06:20,1.948,3.575,3.845,3.480,3.700,1.108,1.840,2.110,�k�k��,4.1,��
2015/02/17,06:30,1.945,3.577,3.842,3.480,3.697,1.107,1.840,2.107,�k�k��,3.8,��
2015/02/17,06:40,1.950,3.577,3.843,3.478,3.698,1.100,1.838,2.110,�k�k��,4.0,��
2015/02/17,06:50,1.947,3.573,3.845,3.483,3.700,1.097,1.840,2.110,�k�k��,3.3,��
2015/02/17,07:00,1.948,3.575,3.847,3.485,3.700,1.097,1.840,2.110,�k�k��,3.3,��
2015/02/17,07:10,1.953,3.573,3.843,3.483,3.695,1.095,1.842,2.110,�k��,3.3,��
2015/02/17,07:20,1.948,3.575,3.847,3.482,3.700,1.095,1.837,2.110,�k�k��,3.8,��
2015/02/17,07:30,1.947,3.578,3.842,3.485,3.700,1.092,1.840,2.108,�k��,3.8,��
2015/02/17,07:40,1.952,3.580,3.845,3.483,3.707,1.092,1.842,2.110,�k�k��,3.3,��
2015/02/17,07:50,1.950,3.578,3.850,3.483,3.702,1.090,1.842,2.110,�k�k��,3.1,��
2015/02/17,08:00,1.950,3.577,3.848,3.483,3.705,1.092,1.840,2.108,�k�k��,3.3,��
2015/02/17,08:10,1.952,3.575,3.850,3.487,3.708,1.090,1.842,2.112,�k�k��,3.3,��
2015/02/17,08:20,1.950,3.582,3.852,3.485,3.705,1.088,1.843,2.112,�k,3.2,��
2015/02/17,08:30,1.952,3.575,3.845,3.487,3.707,1.090,1.840,2.110,�k,3.2,��
2015/02/17,08:40,1.950,3.582,3.845,3.490,3.708,1.087,1.840,2.110,�k,2.9,��
2015/02/17,08:50,1.952,3.578,3.853,3.488,3.708,1.090,1.840,2.112,�k�k��,3.2,��
2015/02/17,09:00,1.953,3.580,3.848,3.485,3.703,1.088,1.840,2.105,�k�k��,2.9,��
2015/02/17,09:10,1.955,3.580,3.852,3.490,3.707,1.090,1.840,2.110,�k�k��,2.4,��
2015/02/17,09:20,1.952,3.580,3.848,3.487,3.710,1.087,1.840,2.107,�k�k��,2.6,��
2015/02/17,09:30,1.952,3.580,3.852,-,3.710,1.090,1.835,2.107,�k�k��,1.9,��
2015/02/17,09:40,1.953,3.580,3.852,-,3.710,1.090,1.830,2.105,�k�k��,2.3,��
2015/02/17,09:50,1.955,3.578,3.848,-,3.710,1.090,1.832,2.107,�k�k��,2.3,�L
2015/02/17,10:00,1.953,3.582,3.848,-,3.707,1.090,1.832,2.108,�k�k��,2.4,�L
2015/02/17,10:10,1.957,3.577,3.848,-,3.700,1.090,1.830,2.110,�k�k��,2.8,�L
2015/02/17,10:20,1.953,3.578,3.843,-,3.695,1.088,1.833,2.108,�k�k��,1.9,��
2015/02/17,10:30,1.950,3.575,3.840,-,3.695,1.087,1.832,2.107,�k�k��,1.9,��
2015/02/17,10:40,1.953,3.575,3.843,-,3.702,1.088,1.833,2.108,�k�k��,1.7,��
2015/02/17,10:50,1.953,3.577,3.843,-,3.698,1.088,1.832,2.108,�k�k��,1.0,�L
2015/02/17,11:00,1.950,3.572,3.842,-,3.697,1.088,1.838,2.108,�k,1.6,�L
2015/02/17,11:10,1.947,3.565,3.833,-,3.693,1.088,1.838,2.107,���k��,2.4,�L
2015/02/17,11:20,1.943,3.537,3.828,-,3.685,1.087,1.838,2.103,�k�k��,2.1,�L
2015/02/17,11:30,1.948,3.530,3.823,-,3.675,1.085,1.835,2.103,�k�k��,1.9,�L
2015/02/17,11:40,1.947,3.530,3.823,-,3.660,1.085,1.837,2.103,�k,1.8,�L
2015/02/17,11:50,1.948,3.530,3.822,-,3.662,1.083,1.835,2.103,�k,2.1,��
2015/02/17,12:00,1.947,3.533,3.823,-,3.667,1.083,1.832,2.100,�k,2.0,��
2015/02/17,12:10,1.945,3.533,3.827,-,3.667,1.085,1.837,2.102,�k�k��,1.9,��
2015/02/17,12:20,1.950,3.535,3.827,-,3.662,1.087,1.835,2.102,�k�k��,2.2,��
2015/02/17,12:30,1.948,3.540,3.823,-,3.663,1.088,1.835,2.103,���k��,2.1,��
2015/02/17,12:40,1.947,3.540,3.825,-,3.670,1.087,1.837,2.102,�k��,1.8,��
2015/02/17,12:50,1.948,3.547,3.830,-,3.667,1.087,1.835,2.102,���k��,1.7,��
2015/02/17,13:00,1.950,3.547,3.832,-,3.668,1.088,1.837,2.103,�k��,1.7,��
2015/02/17,13:10,1.948,3.543,3.828,-,3.670,1.087,1.838,2.102,�k�k��,0.9,��
2015/02/17,13:20,1.947,3.542,3.835,-,3.670,1.088,1.835,2.100,�k,1.2,��
2015/02/17,13:30,1.950,3.543,3.833,-,3.668,1.088,1.835,2.102,�k�k��,2.0,��
2015/02/17,13:40,1.952,3.547,3.833,-,3.672,1.088,1.837,2.105,�k��,3.1,��
2015/02/17,13:50,1.950,3.557,3.833,-,3.673,1.088,1.838,2.103,�k�k��,3.6,��
2015/02/17,14:00,1.950,3.562,3.835,-,3.677,1.093,1.838,2.105,�k�k��,4.4,��
2015/02/17,14:10,1.950,3.562,3.837,-,3.675,1.095,1.837,2.103,�k�k��,3.4,��
2015/02/17,14:20,1.947,3.563,3.840,-,3.673,1.097,1.838,2.102,�k�k��,3.6,�L
2015/02/17,14:30,1.947,3.565,3.842,-,3.673,1.098,1.838,2.107,�k�k��,2.9,�L
2015/02/17,14:40,1.950,3.567,3.842,-,3.677,1.100,1.837,2.107,���k��,3.0,��
2015/02/17,14:50,1.952,3.562,3.842,-,3.677,1.100,1.835,2.107,�k��,2.6,��
2015/02/17,15:00,1.947,3.560,3.835,-,3.680,1.103,1.835,2.105,���k��,1.7,�L
2015/02/17,15:10,1.947,3.555,3.840,-,3.678,1.103,1.837,2.103,�k��,0.9,�L
2015/02/17,15:20,1.943,3.558,3.838,-,3.673,1.108,1.835,2.105,�k�k��,1.2,�L
2015/02/17,15:30,1.950,3.558,3.835,-,3.677,1.108,1.837,2.107,�k�k��,1.3,��
2015/02/17,15:40,1.950,3.563,3.835,-,3.680,1.112,1.838,2.107,�k,1.8,��
2015/02/17,15:50,1.947,3.562,3.838,-,3.678,1.112,1.837,2.108,�k,1.5,��
2015/02/17,16:00,1.947,3.562,3.842,-,3.680,1.112,1.837,2.108,�k�k��,1.4,��
2015/02/17,16:10,1.950,3.560,3.840,-,3.678,1.110,1.840,2.103,�k,1.7,��
2015/02/17,16:20,1.950,3.558,3.838,-,3.677,1.107,1.838,2.105,�k�k��,2.2,��
2015/02/17,16:30,1.948,3.560,3.842,-,3.678,1.108,1.837,2.107,�k,1.7,��
2015/02/17,16:40,1.950,3.560,3.842,3.468,3.678,1.110,1.838,2.107,�k�k��,2.8,��
2015/02/17,16:50,1.948,3.562,3.842,3.473,3.675,1.108,1.837,2.108,�k,2.8,��
2015/02/17,17:00,1.950,3.558,3.838,3.472,3.673,1.107,1.837,2.105,�k,2.1,��
2015/02/17,17:10,1.945,3.560,3.838,3.468,3.678,1.112,1.837,2.105,�k�k��,2.1,�L
2015/02/17,17:20,1.945,3.555,3.838,3.472,3.677,1.107,1.837,2.103,�k�k��,2.0,�L
2015/02/17,17:30,1.947,3.558,3.835,3.467,3.672,1.108,1.833,2.103,�k��,1.9,�L
2015/02/17,17:40,1.947,3.558,3.840,3.468,3.673,1.108,1.837,2.105,�k�k��,1.8,�L
2015/02/17,17:50,1.943,3.555,3.833,3.467,3.673,1.112,1.833,2.103,�k��,2.3,�L
2015/02/17,18:00,1.942,3.545,3.828,3.462,3.668,1.110,1.833,2.102,�k��,2.4,�L
2015/02/17,18:10,1.942,3.543,3.822,3.463,3.665,1.108,1.833,2.102,�k��,2.1,�L
2015/02/17,18:20,1.938,3.528,3.812,3.458,3.660,1.110,1.835,2.098,�k��,2.5,�L
2015/02/17,18:30,1.930,3.510,3.800,3.452,3.652,1.108,1.830,2.095,�k�k��,2.2,�L
2015/02/17,18:40,1.925,3.498,3.792,3.447,3.643,1.108,1.827,2.098,�k�k��,2.5,�L
2015/02/17,18:50,1.922,3.492,3.790,3.447,3.637,1.107,1.825,2.097,�k,1.9,�L
2015/02/17,19:00,1.923,3.492,3.785,3.445,3.632,1.108,1.830,2.098,�k,2.0,��
2015/02/17,19:10,1.925,3.488,3.783,3.443,3.633,1.107,1.830,2.097,�k��,2.2,�L
2015/02/17,19:20,1.923,3.485,3.785,3.445,3.633,1.105,1.830,2.098,�k��,2.8,�L
2015/02/17,19:30,1.920,3.492,3.783,3.445,3.637,1.105,1.830,2.097,�k��,2.7,��
2015/02/17,19:40,1.922,3.488,3.787,3.440,3.640,1.108,1.827,2.097,�k�k��,2.3,�L
2015/02/17,19:50,1.923,3.492,3.787,3.443,3.637,1.108,1.830,2.097,�k�k��,2.3,�L
2015/02/17,20:00,1.918,3.492,3.780,3.440,3.638,1.108,1.828,2.097,�k��,2.3,�L
2015/02/17,20:10,1.918,3.483,3.775,3.437,3.632,1.108,1.825,2.095,�k��,2.1,�L
2015/02/17,20:20,1.912,3.482,3.767,3.430,3.620,1.107,1.823,2.097,�k��,2.2,�L
2015/02/17,20:30,1.910,3.470,3.757,3.425,3.602,1.103,1.822,2.093,�k��,2.8,�L
2015/02/17,20:40,1.910,3.457,3.745,3.417,3.583,1.105,1.822,2.092,�k��,2.1,�L
2015/02/17,20:50,1.908,3.447,3.733,3.405,3.570,1.102,1.822,2.093,�k��,2.0,�L
2015/02/17,21:00,1.903,3.443,3.732,3.403,3.563,1.100,1.820,2.090,�k�k��,1.8,�L
2015/02/17,21:10,1.903,3.440,3.728,3.393,3.558,1.098,1.822,2.090,�k�k��,1.9,�L
2015/02/17,21:20,1.902,3.435,3.728,3.395,3.570,1.097,1.822,2.090,�k�k��,2.2,�L
2015/02/17,21:30,1.903,3.433,3.732,3.393,3.568,1.102,1.820,2.088,�k��,2.3,�L
2015/02/17,21:40,1.900,3.435,3.732,3.397,3.570,1.102,1.820,2.090,�k��,2.2,��
2015/02/17,21:50,1.900,3.438,3.735,3.398,3.572,1.100,1.825,2.088,�k�k��,2.5,��
2015/02/17,22:00,1.902,3.440,3.735,3.395,3.575,1.100,1.822,2.090,�k��,2.3,�L
2015/02/17,22:10,1.903,3.440,3.730,3.400,3.573,1.100,1.820,2.087,�k��,2.2,�L
2015/02/17,22:20,1.898,3.435,3.733,3.397,3.568,1.100,1.820,2.090,�k��,2.7,�L
2015/02/17,22:30,1.898,3.433,3.728,3.395,3.570,1.100,1.820,2.090,�k��,2.6,��
2015/02/17,22:40,1.897,3.435,3.732,3.393,3.573,1.103,1.820,2.090,�k��,2.7,��
2015/02/17,22:50,1.898,3.438,3.733,3.398,3.573,1.105,1.822,2.090,�k��,3.1,��
2015/02/17,23:00,1.898,3.442,3.732,3.395,3.570,1.105,1.820,2.090,�k�k��,3.5,�L
2015/02/17,23:10,1.903,3.442,3.733,3.395,3.572,1.103,1.820,2.087,�k�k��,4.0,�L
2015/02/17,23:20,1.898,3.438,3.733,3.392,3.565,1.102,1.818,2.088,�k�k��,4.1,�L
2015/02/17,23:30,1.898,3.435,3.730,3.393,3.570,1.103,1.823,2.090,�k��,4.1,�L
2015/02/17,23:40,1.903,3.433,3.732,3.392,3.573,1.103,1.818,2.092,�k�k��,4.3,��
2015/02/17,23:50,1.902,3.435,3.732,3.395,3.572,1.102,1.820,2.088,�k�k��,4.7,��
